RH
81 79 76 74 72 74 86 89 86 78 68 52 54 62 59 48 47 50 70 80 80 84 88 90 87 91 88 82 82 85 88 89 87 88 91 93 93 95 92 84 78 69 65
79 77 77 76 71 86 91 81 84 76 63 56 65 59 53 50 50 53 68 85 79 79 85 89 90 86 85 86 87 86 90 88 89 90 94 94 91 88 81 79 71 64 56
85 80 84 87 83 85 84 79 89 75 66 66 73 69 54 52 50 51 62 75 83 77 80 85 83 83 86 90 89 90 88 91 90 90 92 96 93 86 78 70 59 54 53
90 90 88 93 89 86 87 89 85 82 66 60 72 66 53 52 52 54 53 61 66 72 83 79 80 81 84 88 91 90 91 92 92 93 95 96 96 88 82 77 68 57 57
93 96 98 95 90 93 87 93 91 78 58 57 72 65 53 50 54 51 51 55 59 60 70 80 78 80 83 87 88 88 89 90 93 92 93 96 97 90 89 84 78 70 70
99 98 100 98 94 99 98 90 89 83 57 59 68 63 53 58 56 52 50 50 52 56 59 78 80 80 80 82 90 90 87 90 89 90 91 94 93 90 87 84 82 82 82
99 99 100 100 100 100 100 94 94 82 60 59 67 63 61 62 60 55 53 48 52 54 53 68 68 63 78 77 82 93 90 85 89 91 88 85 84 83 84 84 85 86 87
98 97 99 100 99 100 100 99 99 88 69 62 66 65 78 71 65 61 61 55 51 50 53 57 59 55 59 73 79 70 90 91 89 89 88 88 90 90 90 91 93 92 91
91 98 99 99 99 100 100 100 100 93 70 63 65 61 71 68 71 66 67 63 53 51 50 54 58 55 53 56 64 66 62 69 83 94 92 90 90 88 89 88 84 83 84
88 92 95 98 100 100 100 100 98 89 77 68 67 60 52 48 65 77 67 66 55 54 54 54 58 60 61 65 64 70 72 75 75 72 72 73 75 77 80 80 86 88 90
87 88 97 100 100 100 100 100 100 97 73 72 65 60 52 46 54 54 67 65 63 55 55 56 57 65 78 74 68 72 74 79 77 76 72 68 70 72 76 81 99 100 99
94 94 96 98 99 100 100 100 100 98 79 76 64 58 51 47 54 49 53 55 61 55 54 58 69 71 73 69 71 74 76 72 73 74 74 71 68 71 74 83 100 100 99
99 99 100 99 100 100 100 100 100 99 84 73 64 59 52 48 48 45 44 50 54 54 56 60 69 75 68 79 80 79 72 75 78 82 82 82 85 89 93 99 100 100 99
99 99 98 99 100 100 100 100 100 100 88 82 72 61 55 52 47 45 42 53 61 62 64 69 85 82 88 91 84 84 87 86 96 99 99 99 100 100 100 100 100 100 100
99 99 99 100 99 100 99 99 100 100 99 89 83 69 60 56 51 45 44 46 54 70 68 81 94 92 84 87 93 96 95 99 100 100 100 99 100 99 96 90 85 79 72
97 99 99 100 99 100 99 99 100 100 97 95 87 70 66 58 54 51 50 52 56 59 73 85 100 100 100 100 100 99 99 99 99 98 95 91 84 74 65 51 31 16 15
91 99 100 100 100 99 100 100 99 99 97 90 78 76 71 62 59 65 69 69 67 64 72 100 100 100 100 100 100 100 99 100 99 94 89 83 73 46 16 9 6 6 6
94 99 100 100 100 100 98 100 100 100 97 92 86 79 75 70 77 90 93 79 66 59 69 97 100 100 99 100 100 99 100 100 99 96 87 63 25 11 6 6 6 7 7
83 87 95 100 100 100 100 100 100 100 97 90 86 81 75 73 88 94 88 78 74 69 68 84 100 99 99 100 100 100 100 100 95 92 59 36 27 20 29 29 40 31 13
82 84 90 90 99 100 100 99 100 100 100 98 91 82 75 82 89 95 83 68 72 83 91 83 100 100 99 100 99 99 100 96 77 47 32 31 31 37 42 35 36 32 11
88 98 100 100 99 100 100 100 100 100 100 99 98 94 90 94 92 96 75 80 83 99 100 100 100 99 100 100 98 97 93 79 58 36 39 50 44 39 41 37 36 37 39
95 99 100 100 99 99 99 100 100 100 100 100 100 100 99 100 100 95 93 86 100 99 100 98 100 99 97 96 79 62 79 98 87 50 42 50 41 38 37 32 33 51 61
100 99 100 100 99 99 99 100 100 100 100 100 100 100 100 100 100 100 99 100 100 100 100 100 98 97 96 69 39 51 58 58 65 46 44 57 45 39 39 38 36 48 54
100 100 100 100 99 100 100 100 100 100 100 100 100 100 100 100 100 99 100 99 100 100 99 97 89 68 47 45 35 39 48 53 61 56 51 80 47 38 40 38 35 42 51
100 100 100 100 100 100 100 100 99 100 100 100 100 100 100 100 100 100 97 95 85 86 64 42 33 33 34 32 48 61 86 81 41 40 57 56 40 38 39 38 39 44 50
100 100 100 100 100 100 100 100 98 99 99 100 100 99 98 99 100 98 91 86 95 99 70 50 47 40 32 61 70 73 73 56 64 45 56 59 45 41 54 45 45 47 49
Wind_Speed
23 22 24 25 25 23 23 23 22 23 25 20 19 21 16 12 13 13 14 18 17 16 15 14 14 13 13 13 13 12 12 11 11 10 10 9 8 7 4 3 3 2 1
25 25 24 23 24 23 27 26 24 26 20 21 18 21 17 14 15 14 17 17 16 16 15 15 14 13 14 13 12 11 10 10 10 9 7 7 6 6 5 4 2 2 2
26 25 24 24 29 30 30 25 28 27 24 23 22 21 18 15 16 15 17 17 16 16 15 16 14 14 13 13 12 11 10 9 8 7 7 6 7 6 5 5 5 5 5
27 26 24 25 28 30 29 31 27 29 25 26 24 22 19 18 17 15 17 17 16 15 15 16 16 15 14 13 12 12 11 10 9 8 8 7 8 7 6 7 7 7 8
31 27 29 29 26 28 31 25 29 23 21 23 24 21 21 20 20 19 19 18 17 16 16 18 17 17 16 14 13 12 11 11 10 9 9 9 9 7 8 9 9 8 9
27 28 28 31 30 30 32 32 32 26 24 25 25 22 21 21 20 20 18 17 17 17 17 18 18 16 17 15 14 13 13 12 11 11 11 11 11 9 9 8 8 9 10
27 29 29 32 33 33 36 40 38 32 26 28 27 22 19 20 18 18 15 18 17 16 17 16 17 15 16 18 17 15 14 14 13 13 12 11 11 10 11 13 14 15 16
25 31 28 30 35 32 37 39 38 30 27 28 26 24 7 15 20 20 20 18 19 18 17 16 17 15 15 17 18 18 17 16 14 13 13 13 15 15 17 18 19 20 21
25 25 32 34 34 35 34 40 42 39 30 31 33 26 10 8 15 18 21 18 21 20 19 18 17 16 15 14 15 15 15 16 16 14 15 16 16 18 20 20 22 23 24
24 25 26 30 32 37 36 41 45 46 32 29 32 31 24 24 13 9 21 20 18 21 20 19 19 17 15 13 13 13 10 9 10 12 15 17 19 21 22 23 23 23 24
25 24 26 26 33 37 38 45 42 45 40 33 34 32 28 21 30 16 12 19 20 23 21 19 19 16 14 14 12 11 13 10 10 11 14 17 19 20 21 21 18 16 17
22 21 22 28 32 36 37 43 46 45 41 36 35 32 29 18 24 18 11 18 20 23 23 21 17 15 14 15 12 13 12 12 11 11 10 11 13 16 17 16 11 7 8
19 19 20 25 28 34 31 39 40 43 43 36 35 33 25 25 24 20 18 17 14 22 18 20 15 16 15 11 12 13 13 12 12 10 10 11 11 12 11 6 7 6 5
20 19 22 24 25 32 33 40 43 41 43 34 33 33 24 24 20 21 15 19 10 14 16 12 9 12 12 13 12 12 7 10 9 8 6 7 8 6 6 6 4 4 4
18 21 23 26 27 32 33 33 32 35 34 38 35 31 27 24 23 19 19 18 20 9 9 11 6 9 12 13 11 7 5 3 3 3 2 1 1 1 2 5 6 7 9
20 24 23 26 27 31 34 32 30 34 34 35 34 35 29 24 25 19 18 17 18 18 6 12 5 16 13 14 11 10 8 7 8 6 4 4 5 7 8 9 10 11 12
18 20 26 28 29 30 33 35 29 35 32 30 30 31 30 27 24 20 19 19 20 20 14 7 11 15 13 13 13 11 10 7 8 5 4 5 7 7 7 8 9 11 12
15 17 25 28 30 32 35 36 33 31 32 29 29 29 31 28 25 21 22 27 27 24 16 15 14 11 11 12 14 10 9 7 6 4 4 6 7 7 6 8 9 11 12
15 18 20 20 24 29 33 36 37 36 35 32 32 32 33 31 28 26 26 26 23 22 15 14 10 15 11 14 14 14 9 6 4 3 4 5 6 7 10 13 10 14 13
15 14 14 15 16 26 32 33 33 34 37 38 38 35 33 32 31 29 30 31 20 15 19 22 17 17 19 17 17 14 10 5 5 3 4 5 8 12 10 14 12 17 13
15 12 12 13 13 17 23 29 35 38 39 36 34 35 33 31 30 30 33 22 21 28 24 24 17 13 14 15 11 8 7 6 6 6 6 4 8 6 4 6 10 12 14
13 12 11 12 11 13 17 20 26 32 31 33 37 33 34 38 35 33 24 20 32 33 27 20 13 16 15 16 14 12 13 6 3 4 5 4 4 5 6 7 11 11 12
17 17 14 13 10 9 14 18 21 27 31 32 34 34 34 30 32 30 29 29 20 21 24 26 30 24 22 19 18 16 12 10 6 3 4 2 5 6 9 9 10 10 13
21 20 17 16 16 17 19 24 28 30 31 29 30 29 33 31 29 32 30 30 29 26 23 26 26 26 25 21 17 15 14 12 9 8 8 2 6 10 10 7 8 13 19
23 21 20 21 21 23 25 28 31 33 34 30 28 28 32 34 35 39 41 44 42 38 33 33 32 28 24 20 17 16 13 10 5 4 6 4 6 12 9 5 9 17 19
26 25 24 22 22 27 28 33 37 40 39 38 33 31 31 34 36 37 42 45 41 32 36 34 31 27 23 20 16 12 11 9 5 5 5 4 6 10 7 4 16 17 18
Wind_Direction
207 207 210 198 199 198 190 185 193 188 202 179 175 172 183 181 159 154 157 163 163 162 160 155 150 158 154 158 162 153 146 146 150 150 147 150 145 137 146 158 153 143 138
207 207 210 210 203 198 194 191 192 192 199 171 169 177 179 170 168 157 156 168 168 166 168 160 160 163 161 164 161 155 155 155 158 158 161 166 162 176 190 201 211 244 268
209 208 208 208 202 203 196 199 198 192 190 171 178 185 176 170 171 167 153 166 169 174 177 173 164 172 172 170 168 165 165 169 171 176 182 188 192 200 213 236 244 259 273
208 209 208 209 207 205 200 198 193 195 187 172 177 183 173 173 170 169 164 163 167 175 182 182 179 178 180 177 176 176 179 183 185 194 209 213 219 222 235 254 261 268 274
211 209 206 204 205 200 199 193 186 191 184 178 179 187 170 172 171 175 174 170 169 175 184 185 185 188 188 190 186 187 191 195 197 206 220 229 235 240 250 262 270 279 287
211 212 208 205 207 197 191 193 187 194 196 181 186 180 172 163 175 177 176 174 175 181 186 178 191 200 201 202 198 200 200 205 207 213 225 231 242 257 267 271 282 290 295
210 213 206 199 201 196 188 194 188 193 206 183 174 171 155 169 176 176 179 181 179 190 186 178 188 194 204 209 209 205 209 213 216 220 231 244 251 265 277 283 287 293 294
211 215 210 204 196 189 183 187 187 194 206 193 165 161 153 174 182 174 184 195 181 191 196 194 194 196 197 204 211 211 212 215 222 232 246 258 267 275 278 281 285 289 293
210 205 209 210 211 199 188 190 188 188 201 194 176 171 155 180 171 180 183 201 178 195 197 199 201 204 207 204 214 221 221 221 221 231 241 253 261 268 274 278 283 286 288
211 210 206 207 206 203 195 191 188 192 203 189 186 186 185 181 171 173 188 200 191 199 197 198 201 204 205 214 205 205 224 233 245 254 260 264 266 268 270 272 274 277 280
212 210 206 203 209 210 207 197 190 190 199 192 188 194 197 187 178 173 179 185 203 198 198 201 196 200 206 209 217 213 224 236 245 251 255 261 264 268 271 275 283 285 284
207 209 213 219 223 225 207 194 188 186 190 200 190 194 190 194 175 179 178 185 181 197 198 196 199 205 207 209 222 213 230 234 251 259 270 273 271 273 276 278 282 289 279
203 205 209 217 220 211 195 189 186 185 191 193 191 194 190 196 181 204 183 178 181 186 193 188 193 205 210 176 188 217 225 244 264 278 281 283 288 284 278 262 266 273 303
198 202 211 214 206 199 193 195 189 187 191 191 195 196 197 186 192 196 203 168 181 163 185 171 170 159 147 159 186 213 231 254 265 262 273 289 290 269 271 264 281 44 18
192 196 196 203 201 199 195 189 183 182 186 187 193 199 196 190 201 200 204 185 169 161 167 157 133 169 178 184 194 202 183 197 177 177 198 281 151 68 39 7 356 346 344
190 196 191 202 203 201 197 191 186 186 185 189 196 200 197 198 198 196 201 177 176 163 146 158 105 150 164 163 178 186 177 164 141 134 122 94 52 37 20 5 358 358 360
196 188 192 194 197 198 198 192 190 188 195 193 196 200 199 201 197 190 179 178 179 162 156 113 132 154 150 169 169 176 178 166 153 109 88 58 40 25 19 16 7 358 354
195 196 207 195 194 196 196 193 191 193 189 193 196 200 202 201 190 182 179 178 178 177 155 137 153 165 164 170 166 165 179 172 152 109 72 41 28 23 22 13 353 353 355
206 204 200 200 192 188 193 195 195 194 196 197 200 205 204 199 188 183 182 174 179 188 186 168 155 185 163 178 163 165 167 165 113 76 46 23 21 21 28 20 1 354 357
206 209 210 210 197 194 199 200 201 197 202 204 202 207 204 194 189 185 187 190 188 210 197 200 171 168 170 174 175 158 149 139 98 71 40 27 41 30 11 11 335 339 359
194 195 194 199 203 205 207 208 211 208 202 198 198 199 197 190 190 184 191 188 213 204 184 177 156 148 151 158 163 159 129 127 99 47 40 29 39 16 347 335 317 337 342
171 172 173 169 184 204 216 222 222 215 205 190 181 181 185 187 185 186 204 216 209 201 183 165 150 140 145 142 135 133 133 142 125 33 54 107 354 349 332 324 315 336 340
162 162 161 154 150 164 195 203 193 164 160 161 158 158 158 158 161 167 183 189 182 190 197 180 147 136 129 135 131 125 117 120 117 56 50 155 2 335 321 322 324 336 335
157 151 146 141 135 137 168 171 163 146 143 140 145 145 147 146 153 160 146 120 110 110 119 128 130 125 127 129 126 118 122 118 109 62 35 49 347 327 326 332 329 334 336
149 145 145 142 137 133 149 158 144 135 128 123 127 133 137 138 138 142 135 116 103 96 102 110 113 117 117 116 110 114 106 121 126 115 26 8 356 330 323 327 330 334 339
143 142 133 134 136 132 139 146 146 133 117 115 117 118 124 126 129 134 133 124 112 116 115 110 104 101 103 101 102 100 103 112 127 160 18 15 3 2 336 323 334 334 339